Dublin, Ireland

4:59 PM IST on March 30, 2017 (GMT +0100)
Dublin Airport

Weather History for EIDW - September, 2013

Change the Weather History Date:

Sunday, September 22, 2013

  Actual Average Record
Temperature  
Mean Temperature 61 °F -  
Max Temperature 71 °F 58 °F 71 °F (2013)
Min Temperature 51 °F 47 °F 32 °F (2012)
Degree Days  
Heating Degree Days 4    
Growing Degree Days 11 (Base 50)    
Moisture  
Dew Point 55 °F    
Average Humidity 78    
Maximum Humidity 100    
Minimum Humidity 54    
Precipitation  
Precipitation 0.00 in 0.09 in - ()
Sea Level Pressure  
Sea Level Pressure 30.27 in    
Wind  
Wind Speed 8 mph ()    
Max Wind Speed 14 mph    
Max Gust Speed -    
Visibility 6.5 miles    
Events      
Averages and records for this station are not official NWS values.
T = Trace of Precipitation, MM = Missing Value Source: Averaged Metar Reports

Daily Weather History Graph

Daily Weather History Graph

Search for Another Location

Airport or City:

Trip Planner

Search our weather history database for the weather conditions in past years. The results will help you decide how hot, cold, wet, or windy it might be!

Date:

Astronomy

Sep. 22, 2013 Rise Set
Actual Time 7:10 AM IST 7:23 PM IST
Civil Twilight 6:36 AM IST 7:58 PM IST
Nautical Twilight 5:54 AM IST 8:39 PM IST
Astronomical Twilight 5:11 AM IST 9:22 PM IST
Moon 8:29 PM IST (9/22) 10:49 AM IST (9/22)
Length of Visible Light 13h 22m
Length of Day
12h 12m
Waning Gibbous, 90% of the Moon is Illuminated
Sep 22
Waning Gibbous
Sep 27
Last Quarter
Oct 5
New
Oct 12
First Quarter
Oct 19
Full

Hourly Weather History & Observations

Time (IST) Temp. Dew Point Humidity Pressure Visibility Wind Dir Wind Speed Gust Speed Precip Events Conditions
12:00 AM 62.6 °F 59.0 °F 88% 30.21 in 6.2 mi SSW 6.9 mph - N/A   Mostly Cloudy
12:30 AM 62.6 °F 59.0 °F 88% 30.21 in 6.2 mi SW 8.1 mph - N/A   Mostly Cloudy
1:00 AM 61 °F 58 °F 85% 30.24 in 19 mi SW 8.9 mph - -   Partly Cloudy
1:00 AM 60.8 °F 57.2 °F 88% 30.24 in 6.2 mi SW 9.2 mph - N/A   Scattered Clouds
1:30 AM 60.8 °F 57.2 °F 88% 30.24 in 6.2 mi SW 10.4 mph - N/A   Partly Cloudy
2:00 AM 60.8 °F 57.2 °F 88% 30.24 in 6.2 mi SW 12.7 mph - N/A   Partly Cloudy
2:30 AM 60.8 °F 57.2 °F 88% 30.24 in 6.2 mi SW 10.4 mph - N/A   Scattered Clouds
3:00 AM 60.8 °F 57.2 °F 88% 30.24 in 6.2 mi WSW 10.4 mph - N/A   Partly Cloudy
3:30 AM 59.0 °F 55.4 °F 88% 30.24 in 6.2 mi SW 11.5 mph - N/A   Partly Cloudy
4:00 AM 59.0 °F 55.4 °F 88% 30.24 in 6.2 mi SW 11.5 mph - N/A   Partly Cloudy
4:30 AM 59.0 °F 55.4 °F 88% 30.24 in 6.2 mi WSW 10.4 mph - N/A   Partly Cloudy
5:00 AM 59.0 °F 55.4 °F 88% 30.24 in 6.2 mi SW 11.5 mph - N/A   Partly Cloudy
5:30 AM 59.0 °F 55.4 °F 88% 30.24 in 6.2 mi SW 12.7 mph - N/A   Partly Cloudy
6:00 AM 59.0 °F 55.4 °F 88% 30.24 in 6.2 mi WSW 11.5 mph - N/A   Partly Cloudy
6:30 AM 59.0 °F 53.6 °F 82% 30.24 in 6.2 mi SW 10.4 mph - N/A   Partly Cloudy
7:00 AM 58 °F 54 °F 83% 30.27 in 31 mi SSW 6.7 mph - -   Scattered Clouds
7:00 AM 59.0 °F 53.6 °F 82% 30.27 in 6.2 mi SSW 5.8 mph - N/A   Partly Cloudy
7:30 AM 59.0 °F 53.6 °F 82% 30.27 in 6.2 mi SSW 4.6 mph - N/A   Partly Cloudy
8:00 AM 59.0 °F 55.4 °F 88% 30.27 in 6.2 mi Variable 3.5 mph - N/A   Partly Cloudy
8:30 AM 59.0 °F 53.6 °F 82% 30.30 in 6.2 mi SSE 4.6 mph - N/A   Partly Cloudy
9:00 AM 59.0 °F 55.4 °F 88% 30.30 in 6.2 mi South 4.6 mph - N/A   Mostly Cloudy
9:30 AM 62.6 °F 55.4 °F 77% 30.30 in 6.2 mi SSW 4.6 mph - N/A   Mostly Cloudy
10:00 AM 64.4 °F 55.4 °F 73% 30.30 in 6.2 mi SW 5.8 mph - N/A   Scattered Clouds
10:30 AM 66.2 °F 55.4 °F 68% 30.30 in 6.2 mi WSW 8.1 mph - N/A   Partly Cloudy
11:00 AM 66.2 °F 55.4 °F 68% 30.33 in 6.2 mi SW 8.1 mph - N/A   Partly Cloudy
11:30 AM 68.0 °F 55.4 °F 64% 30.33 in 6.2 mi SW 9.2 mph - N/A   Partly Cloudy
12:00 PM 68.0 °F 55.4 °F 64% 30.33 in 6.2 mi SW 9.2 mph - N/A   Scattered Clouds
12:30 PM 69.8 °F 55.4 °F 60% 30.33 in 6.2 mi SW 6.9 mph - N/A   Scattered Clouds
1:00 PM 68 °F 55 °F 54% 30.32 in 25 mi SE 11.2 mph - -   Partly Cloudy
1:00 PM 68.0 °F 55.4 °F 64% 30.30 in 6.2 mi SE 9.2 mph - N/A   Scattered Clouds
1:30 PM 69.8 °F 55.4 °F 60% 30.30 in 6.2 mi SE 12.7 mph - N/A   Scattered Clouds
2:00 PM 68.0 °F 55.4 °F 64% 30.30 in 6.2 mi SE 13.8 mph - N/A   Scattered Clouds
2:30 PM 69.8 °F 55.4 °F 60% 30.30 in 6.2 mi ESE 12.7 mph - N/A   Scattered Clouds
3:00 PM 69.8 °F 55.4 °F 60% 30.30 in 6.2 mi SE 12.7 mph - N/A   Scattered Clouds
3:30 PM 69.8 °F 55.4 °F 60% 30.30 in 6.2 mi SE 12.7 mph - N/A   Scattered Clouds
4:00 PM 69.8 °F 55.4 °F 60% 30.27 in 6.2 mi SE 11.5 mph - N/A   Mostly Cloudy
4:30 PM 69.8 °F 57.2 °F 64% 30.27 in 6.2 mi SE 8.1 mph - N/A   Mostly Cloudy
5:00 PM 71.6 °F 57.2 °F 60% 30.27 in 6.2 mi ESE 6.9 mph - N/A   Mostly Cloudy
5:30 PM 69.8 °F 55.4 °F 60% 30.27 in 6.2 mi SE 4.6 mph - N/A   Mostly Cloudy
6:00 PM 68.0 °F 55.4 °F 64% 30.27 in 6.2 mi WSW 11.5 mph - N/A   Mostly Cloudy
6:30 PM 66.2 °F 55.4 °F 68% 30.27 in 6.2 mi WSW 11.5 mph - N/A   Scattered Clouds
7:00 PM 65 °F 56 °F 64% 30.28 in 25 mi WSW 13.4 mph - -   Scattered Clouds
7:00 PM 64.4 °F 55.4 °F 73% 30.27 in 6.2 mi WSW 12.7 mph - N/A   Partly Cloudy
7:30 PM 64.4 °F 55.4 °F 73% 30.27 in 6.2 mi WSW 8.1 mph - N/A   Partly Cloudy
8:00 PM 62.6 °F 55.4 °F 77% 30.27 in 6.2 mi SW 6.9 mph - N/A   Partly Cloudy
8:30 PM 60.8 °F 55.4 °F 82% 30.27 in 6.2 mi Variable 3.5 mph - N/A   Partly Cloudy
9:00 PM 57.2 °F 55.4 °F 94% 30.27 in 6.2 mi ESE 5.8 mph - N/A   Partly Cloudy
9:30 PM 55.4 °F 53.6 °F 94% 30.27 in 6.2 mi ESE 4.6 mph - N/A   Partly Cloudy
10:00 PM 53.6 °F 53.6 °F 100% 30.27 in 6.2 mi ESE 5.8 mph - N/A   Partly Cloudy
10:30 PM 53.6 °F 51.8 °F 94% 30.27 in 6.2 mi SE 5.8 mph - N/A   Partly Cloudy
11:00 PM 51.8 °F 51.8 °F 100% 30.27 in 6.2 mi SE 6.9 mph - N/A   Mostly Cloudy
11:30 PM 51.8 °F 51.8 °F 100% 30.27 in 6.2 mi SE 8.1 mph - N/A   Mostly Cloudy